[[{"header":{"parameterUnit":"m.s-1","parameterCategory":2,"la1":30.2992,"la2":30.254,"lo1":-89.0895,"lo2":-89.0443,"dy":0.0025,"dx":0.0025,"nx":19,"ny":19,"refTime":"2026-05-21T03:00:00:Z","depth":"0","parameterNumber":2,"parameterNumberName":"U-component_of_CURRENTS"},"data":[0,0,0,0.2085,0.2084,0.202,0.2019,0.2105,0.2106,0,0,0,0,0,0,0,0,0,0,0,0.2121,0.2121,0.2085,0.2083,0.202,0.2019,0.2105,0.2106,0,0,0,0,0,0,0,0,0,0,0,0.2121,0.2121,0.2121,0.2083,0.202,0.2019,0.2104,0.2111,0,0,0,0,0,0,0,0,0,0,0.2152,0.2158,0.2121,0.2121,0.2083,0.202,0.2019,0.2109,0.211,0.2182,0,0.218,0,0.2145,0.2116,0.2117,0,0,0,0.2082,0.2156,0.2142,0.2121,0.2082,0.202,0.2048,0.2108,0.211,0.2185,0.218,0.2182,0.2146,0.2117,0.2118,0.227,0.2271,0,0,0.2085,0.2109,0.214,0.2143,0.208,0.205,0.2046,0.2107,0.2119,0.218,0.2183,0.2148,0.2118,0.2119,0.227,0.227,0,0,0,0.2096,0.2112,0.2092,0.2142,0.2116,0.2048,0.2044,0.2115,0.211,0.2183,0.2149,0.2119,0.2121,0.2269,0.227,0.2341,0,0,0,0.2099,0.2118,0.2094,0.2107,0.2114,0.2091,0.2051,0.2105,0.211,0.2148,0.2119,0.2122,0.2268,0.227,0.2338,0.2396,0,0,0,0.2121,0.212,0.2116,0.2109,0.2079,0.2088,0.2084,0.2104,0.2091,0.2117,0.2122,0.2268,0.2269,0.2335,0.239,0.2528,0,0,0,0.2142,0.2144,0.2117,0.2108,0.208,0.2061,0.2083,0.2086,0.2107,0.212,0.2269,0.227,0.2334,0.2386,0.2523,0.2469,0.2489,0,0,0.2154,0.2146,0.2137,0.2111,0.2092,0.2069,0.2098,0.214,0.2159,0.2259,0.2261,0.2339,0.2389,0.2527,0.2549,0.2566,0,0,0,0.2146,0.2137,0.2127,0.2107,0.2092,0.2129,0.2129,0.2175,0.2267,0.2177,0.2347,0.2378,0.2463,0.2418,0.2432,0.2222,0.2276,0.2276,0.2276,0.2176,0.215,0.2146,0.2126,0.2137,0.2176,0.2249,0.2322,0.2305,0.2369,0.244,0.2602,0.2551,0.2562,0.2345,0.2431,0.2432,0.2432,0.2432,0.2181,0.2172,0.2173,0.216,0.2208,0.2249,0.2387,0.2425,0.2602,0.2523,0.2603,0.2499,0.2582,0.2344,0.2437,0.2436,0.2435,0.2435,0.2435,0.2189,0.2187,0.2178,0.2203,0.2272,0.2332,0.2505,0.2607,0.2689,0.2785,0.2769,0.2766,0.2559,0.2827,0.2828,0.2829,0.2829,0.283,0.283,0.2207,0.2201,0.224,0.2264,0.231,0.2416,0.2603,0.2722,0.2855,0.2876,0.2875,0.2579,0.2724,0.2711,0.2844,0.2841,0.284,0.2838,0.2837,0.2214,0.2245,0.2306,0.2352,0.2438,0.249,0.2664,0.2828,0.2991,0.3038,0.2726,0.2942,0.2935,0.292,0.2913,0.3091,0.3091,0.3091,0.3091,0.2254,0.2262,0.2374,0.245,0.2517,0.2538,0.2614,0.2727,0.2769,0.2712,0.2711,0.2533,0.2532,0.2491,0.2486,0.2465,0.2526,0.2525,0.2524,0.23,0.234,0.2421,0.2473,0.2527,0.2527,0.2472,0.2417,0.2447,0.248,0.2436,0.246,0.2172,0.2188,0.2095,0.2105,0.2061,0,0]},{"header":{"parameterUnit":"m.s-1","parameterCategory":2,"la1":30.2992,"la2":30.254,"lo1":-89.0895,"lo2":-89.0443,"dy":0.0025,"dx":0.0025,"nx":19,"ny":19,"refTime":"2026-05-21T03:00:00:Z","depth":"0","parameterNumber":3,"parameterNumberName":"V-component_of_CURRENTS"},"data":[0,0,0,0.0266,0.0265,0.0224,0.0224,0.0229,0.0229,0,0,0,0,0,0,0,0,0,0,0,0.0285,0.0285,0.0266,0.0265,0.0224,0.0223,0.0229,0.0229,0,0,0,0,0,0,0,0,0,0,0,0.0285,0.0285,0.0285,0.0265,0.0224,0.0223,0.0229,0.0243,0,0,0,0,0,0,0,0,0,0,0.0275,0.0279,0.0285,0.0285,0.0265,0.0224,0.0223,0.0243,0.0242,0.0268,0,0.0271,0,0.0255,0.0232,0.0232,0,0,0,0.0255,0.0279,0.028,0.0285,0.0265,0.0224,0.0239,0.0242,0.0241,0.0267,0.0271,0.0271,0.0255,0.0232,0.0232,0.037,0.0372,0,0,0.0257,0.0265,0.028,0.0279,0.0269,0.0241,0.0238,0.0241,0.0241,0.0271,0.027,0.0255,0.0232,0.0233,0.0369,0.0371,0,0,0,0.0271,0.0267,0.0265,0.028,0.027,0.024,0.0237,0.0241,0.0244,0.027,0.0255,0.0233,0.0233,0.0368,0.037,0.0469,0,0,0,0.0272,0.0276,0.0266,0.0269,0.027,0.0245,0.0237,0.0243,0.0243,0.0255,0.0233,0.0234,0.0366,0.0369,0.0464,0.0541,0,0,0,0.0284,0.0276,0.0279,0.027,0.0257,0.0244,0.0245,0.0242,0.0235,0.0232,0.0234,0.0366,0.0368,0.0459,0.0531,0.0682,0,0,0,0.0284,0.0303,0.0279,0.0293,0.0258,0.0275,0.0245,0.0248,0.0249,0.0233,0.0367,0.037,0.0457,0.0525,0.0675,0.0711,0.0747,0,0,0.0311,0.0306,0.0315,0.0293,0.0314,0.0279,0.0332,0.0316,0.0308,0.0365,0.0367,0.0466,0.0531,0.068,0.0877,0.0908,0,0,0,0.0326,0.0337,0.0338,0.034,0.034,0.0384,0.0354,0.0388,0.0452,0.0325,0.0497,0.0536,0.0627,0.0634,0.0659,0.0548,0.0383,0.0383,0.0382,0.0371,0.0367,0.0392,0.04,0.0422,0.0458,0.0526,0.0578,0.0522,0.0592,0.0638,0.0853,0.086,0.088,0.0764,0.0645,0.0645,0.0646,0.0646,0.0418,0.0434,0.0447,0.047,0.0521,0.0574,0.0701,0.0717,0.0885,0.0784,0.0866,0.0764,0.0914,0.078,0.0653,0.0652,0.0651,0.065,0.065,0.0445,0.0457,0.0465,0.0512,0.0606,0.0669,0.0881,0.0951,0.1004,0.11,0.1131,0.1128,0.0997,0.1141,0.1142,0.1143,0.1144,0.1145,0.1145,0.0468,0.0481,0.0517,0.0571,0.0636,0.0786,0.101,0.1157,0.1292,0.129,0.129,0.1072,0.1005,0.097,0.1161,0.1158,0.1156,0.1155,0.1154,0.0506,0.0503,0.0568,0.0624,0.0802,0.1015,0.1192,0.147,0.1602,0.1671,0.1381,0.1404,0.1394,0.1372,0.1346,0.1625,0.1625,0.1625,0.1625,0.0528,0.0531,0.0644,0.077,0.0961,0.1146,0.1498,0.1693,0.1679,0.16,0.1511,0.1351,0.1337,0.1313,0.1292,0.126,0.151,0.151,0.1509,0.0557,0.059,0.0697,0.0819,0.1043,0.1309,0.1612,0.1816,0.1679,0.1489,0.136,0.1365,0.1104,0.1091,0.102,0.0999,0.0934,0,0]}],[{"header":{"parameterUnit":"m.s-1","parameterCategory":2,"la1":30.2992,"la2":30.254,"lo1":-89.0895,"lo2":-89.0443,"dy":0.0025,"dx":0.0025,"nx":19,"ny":19,"refTime":"2026-05-21T03:00:00:Z","depth":"2","parameterNumber":2,"parameterNumberName":"U-component_of_CURRENTS"},"data":[0,0,0,0.1806,0.1808,0.1852,0.1852,0.1975,0.1977,0,0,0,0,0,0,0,0,0,0,0,0.1775,0.1775,0.1806,0.1808,0.1852,0.1852,0.1975,0.1977,0,0,0,0,0,0,0,0,0,0,0,0.1775,0.1775,0.1775,0.1808,0.1852,0.1852,0.1975,0.1923,0,0,0,0,0,0,0,0,0,0,0.1871,0.1856,0.1775,0.1775,0.1808,0.1852,0.1852,0.192,0.1926,0.1976,0,0.1974,0,0.1991,0.1987,0.1987,0,0,0,0.1801,0.1851,0.1846,0.1775,0.1809,0.1851,0.183,0.1923,0.1931,0.1986,0.1976,0.1981,0.1993,0.1988,0.1989,0.2139,0.214,0,0,0.1799,0.1805,0.184,0.185,0.1811,0.1829,0.1831,0.1927,0.1943,0.1977,0.1984,0.1995,0.1989,0.199,0.2139,0.2139,0,0,0,0.1796,0.1804,0.1795,0.1845,0.1855,0.183,0.1833,0.1938,0.193,0.1985,0.1997,0.199,0.1992,0.2138,0.2139,0.2197,0,0,0,0.1794,0.1802,0.1794,0.1801,0.1852,0.1895,0.1843,0.1923,0.1935,0.1996,0.199,0.1993,0.2138,0.2139,0.2194,0.2258,0,0,0,0.1775,0.1802,0.1798,0.18,0.1822,0.1893,0.1891,0.1925,0.1943,0.1988,0.1994,0.2137,0.2138,0.2192,0.2253,0.2413,0,0,0,0.179,0.18,0.1798,0.1824,0.1821,0.1853,0.189,0.194,0.1977,0.1991,0.2138,0.2139,0.2191,0.2249,0.2407,0.2156,0.2161,0,0,0.1809,0.1803,0.1817,0.1817,0.1839,0.1847,0.1911,0.1981,0.2014,0.2109,0.2112,0.2195,0.2252,0.2412,0.2223,0.2226,0,0,0,0.1828,0.1826,0.1835,0.1853,0.1872,0.1928,0.1968,0.2017,0.2123,0.2043,0.2203,0.2238,0.2337,0.2173,0.2175,0.2144,0.2144,0.2144,0.2144,0.1855,0.1857,0.1883,0.189,0.1922,0.1991,0.2075,0.2156,0.2147,0.2214,0.2289,0.2457,0.2276,0.2277,0.2272,0.2272,0.2273,0.2273,0.2273,0.1886,0.1904,0.1922,0.1946,0.1998,0.2063,0.2207,0.2252,0.2441,0.236,0.2453,0.2244,0.2283,0.2278,0.2277,0.2276,0.2276,0.2275,0.2275,0.1884,0.1901,0.192,0.1989,0.2069,0.2147,0.2349,0.2445,0.2537,0.2633,0.2504,0.2498,0.2549,0.2686,0.2687,0.2688,0.2689,0.2689,0.269,0.1905,0.1923,0.1998,0.2057,0.2111,0.2252,0.2458,0.2599,0.264,0.259,0.2588,0.2599,0.2585,0.2576,0.2705,0.2702,0.27,0.2699,0.2698,0.1911,0.1961,0.2037,0.2102,0.2252,0.232,0.2513,0.2621,0.2776,0.2756,0.2586,0.2583,0.2569,0.256,0.2551,0.2668,0.2668,0.2668,0.2668,0.1919,0.1965,0.2085,0.22,0.2318,0.2364,0.2405,0.2373,0.2432,0.2293,0.231,0.2087,0.2095,0.2045,0.2048,0.2024,0.2005,0.2004,0.2003,0.1936,0.197,0.2046,0.2194,0.2317,0.2352,0.2175,0.189,0.176,0.1982,0.2244,0.2614,0.2318,0.2319,0.2263,0.226,0.223,0,0]},{"header":{"parameterUnit":"m.s-1","parameterCategory":2,"la1":30.2992,"la2":30.254,"lo1":-89.0895,"lo2":-89.0443,"dy":0.0025,"dx":0.0025,"nx":19,"ny":19,"refTime":"2026-05-21T03:00:00:Z","depth":"2","parameterNumber":3,"parameterNumberName":"V-component_of_CURRENTS"},"data":[0,0,0,0.0077,0.0077,0.0077,0.0077,0.0084,0.0085,0,0,0,0,0,0,0,0,0,0,0,0.0069,0.0069,0.0077,0.0077,0.0077,0.0077,0.0084,0.0085,0,0,0,0,0,0,0,0,0,0,0,0.0069,0.0069,0.0069,0.0077,0.0077,0.0077,0.0084,0.008,0,0,0,0,0,0,0,0,0,0,0.0078,0.0074,0.0069,0.0069,0.0077,0.0077,0.0077,0.0079,0.008,0.009,0,0.0092,0,0.0098,0.0086,0.0087,0,0,0,0.0065,0.0074,0.0077,0.0069,0.0077,0.0077,0.0074,0.008,0.008,0.0091,0.0093,0.0093,0.0098,0.0087,0.0087,0.0181,0.0182,0,0,0.0065,0.0066,0.0076,0.0077,0.0081,0.0074,0.0074,0.008,0.0081,0.0093,0.0093,0.0098,0.0087,0.0087,0.018,0.0181,0,0,0,0.0073,0.0066,0.0068,0.0077,0.0081,0.0074,0.0074,0.008,0.0082,0.0094,0.0098,0.0087,0.0087,0.0179,0.0181,0.0257,0,0,0,0.0073,0.0071,0.0068,0.0068,0.0081,0.0081,0.0074,0.0081,0.0082,0.0098,0.0087,0.0087,0.0178,0.018,0.0253,0.032,0,0,0,0.0068,0.0071,0.0072,0.0068,0.0074,0.0081,0.0082,0.0081,0.0086,0.0087,0.0088,0.0178,0.018,0.025,0.0313,0.0466,0,0,0,0.0066,0.008,0.0072,0.0092,0.0074,0.0101,0.0082,0.0097,0.0101,0.0087,0.0179,0.0181,0.0249,0.0308,0.046,0.0398,0.0421,0,0,0.0085,0.0082,0.0095,0.0089,0.0118,0.01,0.0147,0.014,0.0138,0.0173,0.0175,0.0255,0.0312,0.0465,0.0513,0.0533,0,0,0,0.0103,0.0111,0.0118,0.0133,0.0146,0.0179,0.017,0.0195,0.0246,0.0152,0.0274,0.0309,0.0403,0.0352,0.0368,0.019,0.019,0.019,0.0189,0.0123,0.0134,0.0161,0.018,0.0203,0.0235,0.0292,0.0331,0.0292,0.0347,0.0384,0.0572,0.0515,0.0528,0.0381,0.0381,0.0381,0.0381,0.0382,0.0162,0.0179,0.0201,0.0231,0.0269,0.0314,0.0417,0.0435,0.0587,0.0493,0.058,0.0449,0.055,0.0388,0.0387,0.0386,0.0385,0.0385,0.0384,0.0169,0.0182,0.0205,0.0254,0.0317,0.0371,0.056,0.0616,0.0689,0.0776,0.0759,0.0756,0.0658,0.0824,0.0825,0.0826,0.0827,0.0828,0.0828,0.0173,0.0198,0.0221,0.0275,0.0316,0.0449,0.065,0.0793,0.0885,0.0882,0.0881,0.0724,0.0709,0.0687,0.0844,0.0841,0.0839,0.0837,0.0836,0.0159,0.0158,0.0191,0.0227,0.0376,0.0588,0.0752,0.1003,0.1124,0.1167,0.0962,0.0954,0.0947,0.093,0.0914,0.1121,0.1121,0.1121,0.1121,0.0103,0.0127,0.0156,0.0244,0.0418,0.0647,0.1003,0.1166,0.1189,0.1093,0.1095,0.0933,0.0921,0.0903,0.0887,0.0866,0.1062,0.1062,0.1062,0.0041,0.0059,0.0075,0.021,0.0426,0.0763,0.1118,0.1263,0.1081,0.1061,0.1103,0.1114,0.0867,0.0853,0.0812,0.0791,0.0752,0,0]}],[{"header":{"parameterUnit":"m.s-1","parameterCategory":2,"la1":30.2992,"la2":30.254,"lo1":-89.0895,"lo2":-89.0443,"dy":0.0025,"dx":0.0025,"nx":19,"ny":19,"refTime":"2026-05-21T03:00:00:Z","depth":"4","parameterNumber":2,"parameterNumberName":"U-component_of_CURRENTS"},"data":[0,0,0,0.0888,0.0892,0.1033,0.1034,0.1129,0.113,0,0,0,0,0,0,0,0,0,0,0,0.0826,0.0827,0.0888,0.0892,0.1033,0.1034,0.1129,0.113,0,0,0,0,0,0,0,0,0,0,0,0.0825,0.0827,0.0828,0.0893,0.1033,0.1034,0.1129,0.104,0,0,0,0,0,0,0,0,0,0,0.0912,0.0887,0.0826,0.0828,0.0893,0.1033,0.1034,0.1037,0.1046,0.1045,0,0.1072,0,0.1114,0.1135,0.1136,0,0,0,0.0879,0.0879,0.0908,0.0828,0.0895,0.1033,0.0966,0.1042,0.1052,0.1056,0.1074,0.1079,0.1116,0.1136,0.1136,0.1227,0.1228,0,0,0.0871,0.086,0.0901,0.0914,0.0938,0.0961,0.097,0.1049,0.1066,0.1074,0.1082,0.1117,0.1137,0.1137,0.1227,0.1227,0,0,0,0.0857,0.0854,0.0882,0.0909,0.0948,0.0966,0.0976,0.1062,0.1069,0.1083,0.1118,0.1137,0.1138,0.1227,0.1227,0.125,0,0,0,0.0852,0.0847,0.0879,0.0874,0.0947,0.1024,0.0987,0.1063,0.1075,0.1118,0.1137,0.1139,0.1226,0.1227,0.1249,0.1229,0,0,0,0.0818,0.0845,0.086,0.0873,0.0941,0.1024,0.1036,0.1067,0.1096,0.1136,0.1139,0.1226,0.1227,0.1247,0.1227,0.1257,0,0,0,0.0801,0.0826,0.086,0.0902,0.094,0.1004,0.1036,0.1089,0.1121,0.1137,0.1226,0.1227,0.1247,0.1227,0.1255,0.108,0,0,0,0.0815,0.0828,0.0849,0.0883,0.0931,0.0983,0.1053,0.1108,0.1135,0.1191,0.1194,0.1249,0.1227,0.1256,0.1134,0,0,0,0,0.0841,0.0853,0.0871,0.0919,0.097,0.1016,0.1095,0.1134,0.1206,0.1164,0.126,0.1245,0.1263,0.1159,0.1231,0.1231,0.1231,0.1231,0.1231,0.0833,0.0861,0.0883,0.0922,0.0969,0.1056,0.1102,0.1172,0.1216,0.1256,0.1274,0.132,0.1212,0.1301,0.1301,0.1301,0.1301,0.1302,0.1302,0.0812,0.0801,0.0866,0.0894,0.0955,0.1023,0.1137,0.1191,0.1292,0.1304,0.1322,0.1201,0.1304,0.1304,0.1303,0.1303,0.1303,0.1303,0.1303,0.0766,0.0752,0.0795,0.081,0.0875,0.098,0.1067,0.1168,0.1291,0.1321,0.1237,0.1333,0.132,0.1358,0.1358,0.1358,0.1358,0.1358,0.1358,0.0662,0.0696,0.0655,0.0695,0.0728,0.0823,0.0994,0.1082,0.121,0.1223,0.1339,0.1338,0.1337,0.1323,0.1359,0.1359,0.1359,0.1359,0.1358,0.0504,0.0516,0.045,0.0458,0.0514,0.061,0.0804,0.0983,0.1032,0.1095,0.1174,0.1183,0.1154,0.1157,0.1136,0.1118,0.1116,0.1113,0,0.0353,0.0365,0.0258,0.0243,0.0284,0.0473,0.0586,0.0733,0.0909,0.0881,0.1027,0.1107,0.1116,0.1074,0.1074,0.1042,0,0,0,0.0171,0.0187,0.0079,0.0111,0.0194,0.0394,0.0608,0.0651,0.0886,0.0931,0.106,0.1074,0.1188,0.1362,0.1339,0.1337,0.1314,0,0]},{"header":{"parameterUnit":"m.s-1","parameterCategory":2,"la1":30.2992,"la2":30.254,"lo1":-89.0895,"lo2":-89.0443,"dy":0.0025,"dx":0.0025,"nx":19,"ny":19,"refTime":"2026-05-21T03:00:00:Z","depth":"4","parameterNumber":3,"parameterNumberName":"V-component_of_CURRENTS"},"data":[0,0,0,0.004,0.004,0.0032,0.0032,0.0033,0.0033,0,0,0,0,0,0,0,0,0,0,0,0.0044,0.0044,0.004,0.004,0.0032,0.0032,0.0033,0.0033,0,0,0,0,0,0,0,0,0,0,0,0.0045,0.0044,0.0044,0.004,0.0032,0.0032,0.0033,0.0037,0,0,0,0,0,0,0,0,0,0,0.0043,0.004,0.0044,0.0044,0.004,0.0032,0.0032,0.0037,0.0037,0.0039,0,0.0038,0,0.0034,0.0033,0.0033,0,0,0,0.0042,0.0041,0.0042,0.0044,0.004,0.0032,0.0036,0.0037,0.0036,0.0039,0.0038,0.0037,0.0034,0.0033,0.0033,0.0043,0.0043,0,0,0.0042,0.004,0.0043,0.0042,0.0037,0.0036,0.0036,0.0036,0.0034,0.0037,0.0037,0.0034,0.0033,0.0033,0.0043,0.0043,0,0,0,0.0042,0.004,0.0041,0.0042,0.0039,0.0036,0.0036,0.0034,0.0035,0.0037,0.0034,0.0033,0.0033,0.0042,0.0043,0.0075,0,0,0,0.0042,0.004,0.0042,0.004,0.0039,0.0034,0.0033,0.0035,0.0035,0.0034,0.0033,0.0034,0.0042,0.0042,0.0074,0.0099,0,0,0,0.0045,0.004,0.004,0.004,0.0036,0.0034,0.0035,0.0035,0.0033,0.0033,0.0034,0.0042,0.0042,0.0073,0.0096,0.0124,0,0,0,0.0042,0.0039,0.004,0.004,0.0036,0.0047,0.0035,0.0041,0.0044,0.0033,0.0042,0.0043,0.0072,0.0095,0.0122,0.015,0,0,0,0.0037,0.0038,0.0041,0.0042,0.0057,0.0048,0.0064,0.0061,0.0047,0.0043,0.0043,0.0074,0.0096,0.0123,0.0161,0,0,0,0,0.004,0.0044,0.0049,0.0058,0.0064,0.0086,0.0075,0.0072,0.0071,0.0048,0.0069,0.0082,0.0098,0.0109,0.0044,0.0043,0.0043,0.0043,0.0043,0.0035,0.0048,0.0066,0.0086,0.0098,0.0109,0.0117,0.0111,0.0091,0.0093,0.0104,0.0143,0.0154,0.0093,0.0093,0.0093,0.0094,0.0094,0.0094,0.0051,0.0072,0.0096,0.012,0.0147,0.0165,0.017,0.0157,0.0157,0.0132,0.0145,0.0137,0.0097,0.0096,0.0096,0.0095,0.0095,0.0095,0.0095,0.0057,0.0074,0.0091,0.0158,0.0211,0.0234,0.0283,0.0255,0.0201,0.0205,0.0221,0.017,0.0173,0.0215,0.0215,0.0215,0.0215,0.0216,0.0216,0.0063,0.0084,0.016,0.022,0.0302,0.0356,0.0366,0.0354,0.0298,0.0271,0.0223,0.0184,0.018,0.018,0.0219,0.0219,0.0218,0.0218,0.0218,0.0104,0.0128,0.0242,0.0334,0.0486,0.0506,0.0514,0.0442,0.043,0.0392,0.0302,0.0297,0.0292,0.0285,0.0289,0.0362,0.0363,0.0363,0,0.016,0.0167,0.0354,0.051,0.0606,0.0615,0.059,0.0532,0.0435,0.0423,0.0415,0.0315,0.031,0.0305,0.03,0.0305,0,0,0,0.0242,0.0281,0.0429,0.0548,0.0674,0.061,0.0561,0.0531,0.0461,0.0442,0.0377,0.0373,0.0318,0.023,0.021,0.0205,0.0206,0,0]}]]